Location: *
(43.4667°N, 11.6833°E)
Time: 11:10:16
(UTC+00:00)

Helios 1B rocket - Pass Details

Date: 19 July 2019
Orbit: 576 x 584 km, 98.2° (Epoch: 20 August)

Event Time Altitude Azimuth Distance (km) Brightness Sun altitude
Rises 22:39:05 0° 11° (N) 2,818 7.1 -25.1°
Reaches altitude 10° 22:41:15 10° 9° (N) 1,914 6.0 -25.2°
Enters shadow 22:45:01 67° 330° (NNW) 636 2.7 -25.3°
